[[{"header":{"parameterUnit":"m.s-1","parameterCategory":1,"la1":30.2991,"la2":30.254,"lo1":-89.0895,"lo2":-89.0444,"dy":0.0017,"dx":0.0017,"nx":28,"ny":28,"refTime":"2025-05-25T21:00:00:Z","depth":0,"parameterNumber":2,"parameterNumberName":"U-component_of_WINDS"},"data":[0,0,0,0,0,0,0,0,0,0,0,0,0,0,0,0,0,0,0,0,0,0,0,0,0,0,0,0,0,0,0,0,0,0,0,0,0,0,0,0,0,0,0,0,0,0,0,0,0,0,0,0,0,0,0,0,0,0,0.1255,0.1254,0,0.1189,0.1188,0.1187,0.1139,0.1138,0.1138,0.1137,0.1067,0.1066,0.1064,0,0,0,0,0,0,0,0,0,0,0,0,0,0.1336,0.1335,0.1255,0.1254,0.1254,0.1189,0.1188,0.1187,0.1139,0.1138,0.1138,0.1137,0.1068,0.1066,0.1064,0,0,0,0,0,0,0,0,0,0,0,0,0,0.1289,0.1335,0.1255,0.1222,0.1218,0.1189,0.1188,0.1187,0.1139,0.1138,0.1137,0.1137,0.1068,0.1066,0.1064,0.1063,0,0,0.1057,0.1056,0,0,0,0,0,0,0,0,0.1292,0.1286,0.1227,0.1224,0.122,0.1171,0.1191,0.1145,0.1139,0.1169,0.1137,0.1137,0.1102,0.1097,0.1086,0.1059,0.1056,0.1057,0.1056,0.1055,0.1054,0,0,0,0,0,0,0,0.1295,0.1288,0.1229,0.1227,0.1222,0.1209,0.1201,0.1182,0.114,0.1166,0.1162,0.1155,0.11,0.1088,0.1084,0.1055,0.1057,0.1055,0.1054,0.1053,0.1023,0.1024,0,0,0,0,0,0,0.1304,0.1292,0.1231,0.1227,0.1255,0.1208,0.1199,0.1187,0.114,0.1132,0.1156,0.1153,0.1092,0.1087,0.1081,0.1076,0.1055,0.1053,0.1051,0.1022,0.1023,0.1024,0,0,0,0,0,0,0.1306,0.1299,0.1234,0.1258,0.1249,0.1207,0.1194,0.1186,0.1175,0.1132,0.1124,0.1152,0.1092,0.1084,0.1068,0.1073,0.1052,0.105,0.1022,0.1023,0.1023,0.1066,0,0,0,0,0,0,0.1308,0.13,0.13,0.1259,0.1248,0.1222,0.1194,0.1186,0.1171,0.1167,0.1126,0.1119,0.1091,0.1071,0.1065,0.107,0.1048,0.1021,0.1022,0.1023,0.1064,0.1068,0.1072,0,0,0,0,0,0.1311,0.1314,0.13,0.1293,0.1247,0.1223,0.1216,0.1184,0.1172,0.1171,0.1143,0.112,0.1073,0.107,0.1063,0.1067,0.1021,0.1022,0.1023,0.1062,0.1068,0.1072,0,0,0,0,0,0,0.1357,0.1308,0.1292,0.1282,0.1257,0.1214,0.1212,0.1191,0.1168,0.1165,0.1126,0.1117,0.1104,0.1083,0.108,0.1062,0.1044,0.1044,0.1076,0.1081,0.1085,0.109,0.1046,0,0,0,0,0,0.1366,0.1351,0.1309,0.1304,0.1292,0.1255,0.1243,0.122,0.1192,0.1181,0.1152,0.1125,0.1104,0.1091,0.107,0.1061,0.1051,0.106,0.1064,0.1067,0.1068,0.106,0.1063,0.1028,0.1028,0.1028,0,0,0.1384,0.1356,0.1349,0.1312,0.129,0.1275,0.1246,0.1231,0.1219,0.1179,0.1161,0.1139,0.1106,0.1093,0.1086,0.1075,0.1075,0.1069,0.1072,0.107,0.1062,0.1065,0.1068,0.1029,0.1028,0.1028,0,0,0.1409,0.1387,0.138,0.1358,0.1325,0.13,0.1298,0.1259,0.1243,0.1224,0.1194,0.1178,0.1143,0.112,0.1105,0.112,0.1097,0.1114,0.1135,0.1128,0.1131,0.1133,0.1138,0.114,0.1115,0.1115,0.1115,0,0.1436,0.1412,0.1378,0.1365,0.135,0.1313,0.1305,0.1285,0.1247,0.1236,0.1226,0.118,0.1156,0.1136,0.114,0.1128,0.1124,0.1119,0.1133,0.1135,0.1137,0.1141,0.1143,0.1117,0.1117,0.1116,0.1116,0,0.1446,0.143,0.1428,0.1392,0.1376,0.1366,0.133,0.1317,0.1296,0.1272,0.1253,0.1222,0.1193,0.1186,0.1165,0.1164,0.1158,0.1141,0.1122,0.1143,0.1146,0.1148,0.112,0.1119,0.1119,0.1118,0,0,0.1498,0.1444,0.1444,0.1426,0.1387,0.1373,0.136,0.1333,0.1323,0.1297,0.1284,0.1255,0.1239,0.1221,0.1196,0.1191,0.1204,0.1174,0.1172,0.118,0.1199,0.1212,0.1215,0.1189,0.1189,0.1189,0.1202,0,0.1517,0.1493,0.1462,0.1448,0.1432,0.1397,0.1385,0.1359,0.1336,0.1318,0.1291,0.1271,0.1251,0.124,0.1232,0.1204,0.1207,0.1203,0.1176,0.1175,0.1185,0.1216,0.123,0.1244,0.1203,0.1203,0.1203,0,0.1535,0.1512,0.1497,0.1458,0.145,0.1441,0.1412,0.1396,0.1365,0.1348,0.1328,0.1302,0.1285,0.1268,0.1244,0.1241,0.1228,0.1212,0.1212,0.1208,0.119,0.1213,0.1248,0.125,0.1205,0.1205,0.1205,0,0.1575,0.1539,0.1525,0.1512,0.1466,0.146,0.1441,0.1409,0.1394,0.1369,0.1359,0.1332,0.1317,0.1296,0.1263,0.1254,0.1242,0.1222,0.1226,0.1227,0.1225,0.1226,0.1258,0.1218,0.1218,0.1218,0.1218,0,0.1598,0.159,0.1542,0.1534,0.1523,0.1487,0.1477,0.1454,0.1426,0.1412,0.1379,0.1366,0.1323,0.1304,0.1278,0.1261,0.1255,0.124,0.1233,0.1243,0.1245,0.1233,0.1231,0.1218,0.1218,0.1218,0.1218,0,0.164,0.1608,0.159,0.1549,0.1538,0.1532,0.1496,0.1485,0.146,0.1442,0.1435,0.1395,0.1371,0.1336,0.1301,0.1283,0.127,0.1259,0.1281,0.1277,0.1283,0.1283,0.1309,0.131,0.127,0.127,0.1271,0,0.1658,0.1651,0.1608,0.1597,0.1579,0.156,0.1545,0.1508,0.1493,0.1457,0.1451,0.1425,0.1402,0.1365,0.1332,0.1305,0.1293,0.1304,0.1289,0.1298,0.1292,0.1293,0.1292,0.1308,0.1308,0.1309,0.1309,0,0.1691,0.1676,0.1655,0.1629,0.1612,0.1589,0.1565,0.1557,0.1515,0.15,0.1476,0.1458,0.1423,0.1397,0.1365,0.1343,0.1319,0.1314,0.1314,0.1323,0.1336,0.1329,0.1291,0.1314,0.1313,0.1313,0.1313,0.1313,0.1721,0.1713,0.1682,0.166,0.1638,0.1616,0.1604,0.1577,0.1556,0.1525,0.1505,0.1481,0.1449,0.1404,0.1384,0.1364,0.1354,0.1353,0.1353,0.1353,0.1357,0.134,0.1358,0.1358,0.1358,0.1358,0.1358,0,0.1753,0.1731,0.1711,0.1678,0.1661,0.164,0.1612,0.1598,0.1579,0.1551,0.1529,0.1501,0.1475,0.144,0.1411,0.1402,0.139,0.1396,0.1396,0.1391,0.1368,0.1371,0.1406,0.1406,0.1406,0.1406,0.1406,0.1406,0.1767,0.1752,0.1732,0.1705,0.1683,0.1661,0.1646,0.1625,0.1603,0.1573,0.1552,0.1529,0.1498,0.1467,0.1442,0.1432,0.1423,0.1432,0.1419,0.1397,0.1393,0.1389,0.1392,0.1431,0.1431,0.1444,0.1444,0.1444]},{"header":{"parameterUnit":"m.s-1","parameterCategory":1,"la1":30.2991,"la2":30.254,"lo1":-89.0895,"lo2":-89.0444,"dy":0.0017,"dx":0.0017,"nx":28,"ny":28,"refTime":"2025-05-25T21:00:00:Z","depth":0,"parameterNumber":3,"parameterNumberName":"V-component_of_WINDS"},"data":[0,0,0,0,0,0,0,0,0,0,0,0,0,0,0,0,0,0,0,0,0,0,0,0,0,0,0,0,0,0,0,0,0,0,0,0,0,0,0,0,0,0,0,0,0,0,0,0,0,0,0,0,0,0,0,0,0,0,2.9978,2.9978,0,3.0021,3.0021,3.0022,3.0032,3.0031,3.0031,3.0031,3.007,3.0071,3.0072,0,0,0,0,0,0,0,0,0,0,0,0,0,2.99,2.9901,2.9978,2.9978,2.9979,3.0021,3.0021,3.0022,3.0032,3.0031,3.0031,3.0031,3.0069,3.0071,3.0072,0,0,0,0,0,0,0,0,0,0,0,0,0,2.9937,2.9901,2.9978,2.9989,2.999,3.002,3.0021,3.0022,3.0032,3.0031,3.0031,3.0031,3.0069,3.0071,3.0072,3.0093,0,0,3.0078,3.0079,0,0,0,0,0,0,0,0,2.9935,2.994,2.9987,2.9988,2.999,3.0021,3.0008,3.0045,3.0032,3.0016,3.0031,3.003,3.0053,3.0056,3.0065,3.0094,3.0096,3.0078,3.008,3.008,3.0081,0,0,0,0,0,0,0,2.9932,2.9938,2.9994,2.9987,2.9989,2.999,2.9995,3.0015,3.0036,3.0017,3.0018,3.0023,3.0054,3.0063,3.0066,3.0097,3.0078,3.008,3.0081,3.0082,3.0144,3.0145,0,0,0,0,0,0,2.9928,2.9936,2.9993,2.9996,2.9961,2.9992,2.9998,3.0011,3.0036,3.004,3.0024,3.0024,3.006,3.0064,3.0068,3.0093,3.008,3.0082,3.0083,3.0144,3.0145,3.0145,0,0,0,0,0,0,2.9927,2.9933,2.9991,2.9966,2.9974,2.9994,3.0009,3.0012,3.0022,3.0041,3.0044,3.003,3.006,3.0065,3.0087,3.0095,3.0083,3.0085,3.0143,3.0144,3.0145,3.0144,0,0,0,0,0,0,2.9924,2.9933,2.9942,2.9966,2.9975,3.0011,3.0009,3.0013,3.0025,3.0026,3.0047,3.0051,3.006,3.0084,3.0089,3.0097,3.0086,3.0143,3.0144,3.0145,3.0143,3.0145,3.0146,0,0,0,0,0,2.9922,2.9938,2.9942,2.9949,2.9987,3.0012,3.0016,3.0029,3.0026,3.0034,3.0047,3.005,3.0093,3.0086,3.0091,3.0101,3.0142,3.0143,3.0145,3.0143,3.0144,3.0146,0,0,0,0,0,0,2.9912,2.9942,2.9946,2.9972,2.999,3.0013,3.0024,3.003,3.0047,3.0046,3.0059,3.0064,3.0085,3.0095,3.0086,3.0121,3.0117,3.012,3.0114,3.0116,3.0117,3.0114,3.0088,0,0,0,0,0,2.9913,2.9933,2.9957,2.9977,2.9986,3.0004,3.0015,3.0023,3.0041,3.0048,3.0062,3.0078,3.0095,3.0106,3.0123,3.0145,3.015,3.0154,3.0155,3.0156,3.0158,3.017,3.0172,3.0149,3.0149,3.0149,0,0,2.9915,2.9934,2.9945,2.9976,2.999,3.0009,3.001,3.0029,3.0043,3.005,3.0073,3.0083,3.0102,3.0124,3.0134,3.0133,3.0165,3.0157,3.0158,3.0159,3.0172,3.0174,3.0176,3.015,3.0149,3.0149,0,0,2.9929,2.9945,2.9964,2.9979,3.0002,3.0014,3.0019,3.0042,3.005,3.0073,3.0079,3.0094,3.0124,3.0137,3.0147,3.0167,3.017,3.0171,3.0177,3.0189,3.0191,3.0193,3.02,3.0202,3.0173,3.0173,3.0173,0,2.9928,2.9958,2.9973,2.9993,3.0006,3.0016,3.0034,3.0047,3.0073,3.0082,3.008,3.0118,3.013,3.0156,3.0161,3.0169,3.0174,3.0169,3.019,3.0192,3.0194,3.02,3.0203,3.0173,3.0173,3.0173,3.0173,0,2.9956,2.9976,2.9989,3.0017,3.0031,3.005,3.0066,3.0078,3.0085,3.0097,3.012,3.0136,3.0156,3.0163,3.0169,3.0189,3.0188,3.0188,3.0184,3.0196,3.0202,3.0205,3.0173,3.0173,3.0173,3.0173,0,0,2.9964,3.0001,3.0005,3.0018,3.0044,3.006,3.0078,3.0101,3.0111,3.0128,3.0144,3.0169,3.017,3.0182,3.0189,3.02,3.0214,3.0199,3.0199,3.0201,3.0238,3.0237,3.024,3.0216,3.0217,3.0217,3.0236,0,2.9981,3.0018,3.0032,3.0061,3.008,3.009,3.0106,3.0123,3.0134,3.0151,3.0162,3.018,3.018,3.0187,3.0198,3.021,3.0222,3.0209,3.023,3.0231,3.0225,3.0244,3.0243,3.026,3.0239,3.0239,3.0239,0,3.0005,3.0026,3.0058,3.0082,3.0091,3.0106,3.0127,3.0143,3.0162,3.0169,3.0183,3.0191,3.0209,3.0205,3.023,3.0221,3.0231,3.0238,3.0239,3.0241,3.0236,3.0246,3.0266,3.0268,3.0243,3.0243,3.0243,0,3.0008,3.0044,3.0067,3.0078,3.0107,3.0118,3.013,3.0149,3.0161,3.0179,3.0187,3.0207,3.0217,3.0231,3.0243,3.0238,3.0267,3.0264,3.0273,3.0273,3.0279,3.0278,3.03,3.0285,3.0285,3.0285,3.0284,0,3.0026,3.0045,3.007,3.0084,3.0105,3.0121,3.0141,3.0153,3.017,3.0186,3.0195,3.0209,3.0224,3.024,3.0249,3.0269,3.0273,3.0279,3.0281,3.0278,3.0278,3.0284,3.0284,3.0285,3.0285,3.0285,3.0285,0,3.0033,3.005,3.0077,3.0103,3.011,3.0125,3.0146,3.016,3.0172,3.0192,3.0198,3.0216,3.0235,3.0249,3.0272,3.0279,3.03,3.0302,3.0294,3.0295,3.0304,3.0303,3.0331,3.0336,3.0317,3.0317,3.0318,0,3.0043,3.0058,3.0087,3.0099,3.0112,3.0132,3.0145,3.0161,3.0174,3.0197,3.0208,3.0228,3.0246,3.0276,3.029,3.0308,3.0311,3.0319,3.0313,3.031,3.0311,3.031,3.0311,3.032,3.032,3.032,3.032,0,3.0059,3.0067,3.0087,3.0111,3.0127,3.0146,3.0164,3.0173,3.0191,3.0205,3.0227,3.024,3.0266,3.0286,3.0306,3.0316,3.0321,3.0322,3.0326,3.0323,3.0318,3.0321,3.0297,3.0321,3.0321,3.0321,3.0321,3.0321,3.0068,3.0082,3.0105,3.0127,3.0143,3.016,3.0175,3.019,3.0208,3.0232,3.0239,3.0261,3.0279,3.0307,3.0318,3.0334,3.0333,3.0338,3.0339,3.034,3.034,3.0316,3.0338,3.0338,3.0338,3.0338,3.0338,0,3.0084,3.01,3.012,3.0147,3.0164,3.017,3.019,3.0204,3.0224,3.0241,3.0259,3.0283,3.0302,3.0318,3.0338,3.0348,3.035,3.0352,3.0352,3.0354,3.034,3.0335,3.035,3.035,3.035,3.035,3.035,3.035,3.0095,3.012,3.0131,3.0163,3.0178,3.0201,3.0213,3.0228,3.0242,3.027,3.0287,3.0298,3.0315,3.0336,3.0353,3.0358,3.0364,3.0366,3.037,3.0356,3.0355,3.0354,3.0349,3.0367,3.0367,3.0383,3.0384,3.0384]}]]